Total_Precipitation_Accumulation
0.00 0.03 0.17 0.46 1.06 1.41 1.26 0.70 0.53 0.41 0.42 0.43 0.45 0.43 0.44 0.49 0.76 1.08 0.64 0.33 0.11 0.03 0.03 0.11 0.22 0.23 0.19 0.18 0.17 0.19 0.19 0.17 0.16 0.13 0.11 0.09 0.09 0.09 0.09 0.09 0.10 0.11 0.13 0.16 0.19 0.21 0.19 0.20 0.24
0.02 0.07 0.26 0.66 1.30 1.40 1.08 0.59 0.43 0.35 0.38 0.39 0.35 0.40 0.52 0.57 0.45 0.43 0.44 0.33 0.12 0.04 0.03 0.05 0.14 0.21 0.21 0.19 0.19 0.19 0.19 0.17 0.16 0.13 0.11 0.10 0.10 0.09 0.11 0.11 0.12 0.14 0.16 0.18 0.20 0.18 0.19 0.21 0.23
0.03 0.09 0.28 0.64 0.82 0.88 0.73 0.47 0.38 0.31 0.42 0.58 0.49 0.41 0.52 0.66 0.49 0.39 0.35 0.21 0.12 0.08 0.05 0.08 0.13 0.17 0.20 0.20 0.20 0.19 0.18 0.17 0.15 0.13 0.12 0.12 0.12 0.14 0.14 0.13 0.15 0.17 0.19 0.21 0.21 0.18 0.19 0.17 0.17
0.04 0.14 0.31 0.43 0.33 0.33 0.37 0.37 0.35 0.39 0.61 0.77 0.64 0.51 0.55 0.51 0.48 0.40 0.31 0.20 0.15 0.11 0.10 0.12 0.17 0.17 0.19 0.19 0.20 0.20 0.17 0.15 0.14 0.13 0.14 0.14 0.17 0.19 0.16 0.16 0.18 0.18 0.20 0.24 0.26 0.20 0.18 0.17 0.18
0.04 0.19 0.42 0.31 0.18 0.19 0.21 0.26 0.40 0.47 0.71 0.80 0.60 0.61 0.67 0.56 0.55 0.52 0.38 0.32 0.29 0.30 0.27 0.25 0.26 0.24 0.21 0.20 0.20 0.22 0.19 0.17 0.16 0.14 0.15 0.17 0.19 0.22 0.22 0.22 0.24 0.21 0.21 0.26 0.29 0.25 0.20 0.23 0.26
0.04 0.13 0.24 0.18 0.11 0.10 0.14 0.22 0.36 0.50 0.69 0.77 0.62 0.79 0.82 0.78 0.73 0.70 0.68 0.68 0.62 0.66 0.60 0.50 0.46 0.37 0.29 0.25 0.25 0.26 0.24 0.21 0.21 0.19 0.20 0.20 0.22 0.23 0.25 0.27 0.28 0.28 0.29 0.30 0.30 0.25 0.26 0.31 0.35
0.02 0.07 0.12 0.08 0.05 0.08 0.14 0.22 0.40 0.55 0.70 0.91 0.87 0.95 0.94 1.03 0.98 0.90 0.91 0.94 0.96 0.94 0.88 0.67 0.53 0.47 0.41 0.41 0.37 0.32 0.30 0.28 0.27 0.27 0.24 0.24 0.24 0.24 0.25 0.30 0.32 0.32 0.33 0.35 0.35 0.33 0.36 0.39 0.39
0.00 0.02 0.05 0.03 0.03 0.05 0.12 0.23 0.37 0.53 0.77 0.90 0.89 0.96 0.96 0.93 1.01 1.08 1.11 1.21 1.40 1.24 1.07 0.79 0.62 0.63 0.53 0.47 0.43 0.40 0.35 0.32 0.31 0.31 0.32 0.33 0.31 0.30 0.34 0.36 0.39 0.40 0.38 0.38 0.40 0.42 0.44 0.45 0.43
0.00 0.01 0.03 0.02 0.01 0.03 0.12 0.28 0.43 0.46 0.60 0.89 1.15 0.98 0.81 0.89 1.16 1.30 1.47 1.46 1.68 1.61 1.20 0.83 0.78 0.88 0.77 0.59 0.52 0.58 0.53 0.50 0.50 0.54 0.52 0.62 0.78 0.75 0.78 0.63 0.62 0.61 0.64 0.65 0.67 0.69 0.71 0.68 0.54
0.00 0.01 0.02 0.01 0.01 0.03 0.14 0.34 0.50 0.59 0.84 1.17 1.40 1.21 0.99 0.95 1.33 1.60 1.59 1.42 1.40 1.56 1.49 1.10 0.93 0.92 0.86 0.74 0.72 0.99 1.01 1.01 1.08 1.17 1.11 1.25 1.26 1.11 0.85 0.82 0.97 0.97 1.11 1.22 1.35 1.44 1.26 1.04 0.88
0.00 0.00 0.01 0.01 0.01 0.05 0.18 0.20 0.28 0.54 1.07 1.46 1.71 1.35 1.08 1.11 1.41 1.81 1.81 1.61 1.45 1.51 1.43 1.40 1.16 1.04 1.01 1.09 1.02 1.15 1.29 1.40 1.51 1.45 1.48 1.63 1.41 1.17 1.04 1.16 1.39 1.44 1.55 1.68 1.93 2.05 1.54 1.53 1.76
0.00 0.00 0.00 0.01 0.01 0.03 0.10 0.18 0.33 0.62 1.07 1.35 1.27 1.12 1.11 1.26 1.44 1.92 2.14 1.89 1.72 1.67 1.60 1.79 1.64 1.45 1.44 1.39 1.40 1.24 1.19 1.27 1.40 1.48 1.48 1.62 1.56 1.44 1.45 1.51 1.55 1.73 1.91 2.14 2.08 2.20 2.19 2.28 2.16
0.00 0.00 0.00 0.00 0.01 0.03 0.08 0.18 0.29 0.52 0.80 0.87 0.78 0.94 1.33 1.39 1.59 2.07 2.55 2.43 2.23 2.06 2.09 2.20 2.11 2.14 2.08 1.88 1.67 1.34 1.26 1.23 1.25 1.32 1.34 1.56 1.78 1.77 1.85 1.65 1.62 1.44 1.71 2.07 2.27 2.31 2.52 2.65 2.59
0.00 0.01 0.01 0.02 0.03 0.04 0.08 0.15 0.31 0.69 0.71 0.66 0.77 1.02 1.35 1.69 1.74 2.09 2.67 2.77 2.67 2.64 2.75 2.70 2.58 2.57 2.49 2.11 1.85 1.62 1.38 1.35 1.28 1.29 1.41 1.85 2.03 1.93 1.97 1.88 1.78 1.55 1.66 1.98 2.32 2.39 2.64 2.63 2.68
0.01 0.03 0.08 0.09 0.07 0.08 0.11 0.33 0.58 0.75 0.72 0.72 0.91 1.08 1.47 1.98 2.12 2.32 2.71 2.91 3.04 3.26 3.37 3.45 3.32 3.01 2.91 2.57 2.08 1.75 1.47 1.29 1.33 1.47 1.64 1.93 2.07 2.14 2.28 2.18 1.84 1.68 1.83 2.00 2.01 2.14 2.60 2.44 2.42
0.02 0.06 0.23 0.17 0.09 0.09 0.17 0.55 0.76 0.79 0.80 0.85 1.00 1.28 1.62 2.03 2.08 2.23 2.55 2.99 3.37 3.81 4.16 4.21 3.88 3.71 3.53 3.04 2.58 2.20 1.99 1.78 1.77 1.75 1.70 1.63 1.81 1.94 2.10 1.83 1.48 1.62 1.88 2.01 1.93 1.93 2.29 2.35 2.37
0.05 0.09 0.18 0.18 0.12 0.11 0.20 0.57 0.61 0.51 0.80 1.11 1.28 1.47 1.62 1.79 1.90 2.10 2.39 2.91 3.44 4.05 4.65 4.84 4.85 4.39 3.89 3.22 2.73 2.30 2.21 2.07 1.90 1.74 1.55 1.36 1.26 1.26 1.37 1.23 1.16 1.32 1.56 1.58 1.39 1.53 1.80 1.94 2.07
0.04 0.08 0.14 0.19 0.16 0.15 0.27 0.51 0.64 0.54 0.76 1.01 1.10 1.41 1.52 1.52 1.72 2.09 2.57 2.94 3.56 4.16 4.71 4.94 4.98 4.41 3.67 3.18 2.95 2.62 2.27 2.05 1.83 1.57 1.33 1.08 0.99 0.91 1.00 0.99 0.92 0.97 1.02 1.07 1.21 1.40 1.53 1.46 1.54
0.03 0.07 0.15 0.17 0.16 0.23 0.37 0.62 0.74 0.71 0.72 0.76 0.89 1.11 1.17 1.24 1.51 1.95 2.56 3.12 3.70 4.54 5.03 5.06 4.67 3.78 3.18 2.68 2.42 2.19 1.94 1.74 1.50 1.24 1.05 0.93 0.88 0.79 0.81 0.78 0.79 0.81 0.79 0.81 0.95 1.07 1.10 0.94 1.11
0.05 0.09 0.17 0.16 0.12 0.14 0.34 0.65 0.74 0.78 0.82 0.75 0.80 0.92 0.87 0.99 1.34 1.95 2.70 3.39 3.84 4.19 4.40 4.29 3.76 2.95 2.41 2.09 1.99 1.82 1.64 1.33 1.17 0.99 0.91 0.81 0.75 0.69 0.66 0.69 0.65 0.61 0.67 0.68 0.72 0.84 0.86 0.77 0.88
0.08 0.09 0.14 0.17 0.13 0.15 0.34 0.75 0.87 0.86 0.83 0.76 0.63 0.65 0.77 0.98 1.54 2.28 3.05 3.61 3.70 3.57 3.23 2.86 2.57 2.15 1.97 1.89 1.71 1.53 1.45 1.19 0.98 0.76 0.67 0.62 0.55 0.50 0.48 0.45 0.45 0.48 0.50 0.55 0.60 0.68 0.73 0.70 0.65
0.09 0.07 0.05 0.07 0.11 0.32 0.45 0.86 0.94 0.94 0.90 0.69 0.60 0.67 0.83 1.09 1.65 2.35 2.88 2.97 2.94 2.68 2.27 2.04 1.94 1.80 1.68 1.60 1.49 1.23 1.03 0.93 0.79 0.68 0.60 0.54 0.45 0.42 0.39 0.35 0.34 0.34 0.35 0.45 0.43 0.51 0.63 0.67 0.57
0.05 0.04 0.04 0.08 0.18 0.34 0.47 0.74 0.97 0.94 1.03 0.62 0.46 0.55 0.69 0.93 1.22 1.44 1.61 1.64 1.68 1.59 1.65 1.70 1.74 1.74 1.64 1.55 1.43 1.26 1.01 0.92 0.86 0.81 0.73 0.65 0.55 0.45 0.40 0.38 0.35 0.34 0.31 0.34 0.35 0.46 0.55 0.62 0.56
0.04 0.06 0.12 0.21 0.36 0.70 0.69 0.79 1.07 1.02 0.86 0.45 0.27 0.33 0.53 0.66 0.70 0.76 0.77 0.83 1.01 1.02 1.12 1.24 1.29 1.42 1.48 1.42 1.24 1.13 1.01 0.95 0.91 0.80 0.66 0.57 0.51 0.47 0.42 0.42 0.43 0.39 0.36 0.36 0.36 0.39 0.42 0.55 0.63
0.05 0.09 0.31 0.63 0.98 1.03 0.61 0.69 1.04 0.96 0.62 0.32 0.20 0.17 0.24 0.38 0.51 0.61 0.65 0.71 0.85 0.78 0.81 0.92 0.97 0.99 1.06 1.05 0.98 0.95 0.95 0.92 0.84 0.71 0.60 0.51 0.41 0.39 0.39 0.38 0.41 0.42 0.42 0.41 0.41 0.42 0.40 0.47 0.56
0.06 0.07 0.18 0.35 0.44 0.59 0.61 1.06 1.21 0.64 0.34 0.20 0.14 0.11 0.15 0.25 0.37 0.42 0.45 0.52 0.60 0.54 0.57 0.69 0.77 0.76 0.76 0.78 0.79 0.76 0.81 0.73 0.68 0.70 0.60 0.52 0.43 0.39 0.37 0.36 0.35 0.38 0.41 0.44 0.49 0.45 0.45 0.47 0.48
0.06 0.05 0.07 0.09 0.16 0.41 0.75 1.05 0.91 0.45 0.29 0.15 0.11 0.11 0.12 0.16 0.24 0.26 0.27 0.31 0.39 0.42 0.46 0.54 0.64 0.66 0.62 0.66 0.68 0.63 0.69 0.70 0.68 0.66 0.58 0.52 0.54 0.45 0.42 0.38 0.40 0.43 0.44 0.47 0.50 0.48 0.47 0.49 0.47
0.06 0.06 0.07 0.10 0.18 0.36 0.65 1.00 1.05 0.62 0.33 0.18 0.14 0.15 0.14 0.14 0.17 0.16 0.17 0.19 0.24 0.33 0.44 0.52 0.56 0.60 0.58 0.59 0.58 0.51 0.58 0.67 0.73 0.68 0.59 0.57 0.59 0.52 0.51 0.48 0.46 0.48 0.49 0.49 0.52 0.50 0.54 0.57 0.59
0.09 0.08 0.10 0.10 0.11 0.21 0.48 0.70 0.52 0.42 0.30 0.24 0.20 0.16 0.13 0.14 0.17 0.14 0.11 0.12 0.16 0.24 0.35 0.42 0.51 0.58 0.58 0.58 0.63 0.66 0.64 0.60 0.68 0.70 0.69 0.70 0.71 0.61 0.59 0.59 0.59 0.58 0.58 0.60 0.64 0.63 0.65 0.71 0.80
0.11 0.11 0.12 0.13 0.12 0.12 0.25 0.37 0.33 0.41 0.39 0.30 0.22 0.20 0.17 0.15 0.13 0.10 0.10 0.12 0.16 0.20 0.27 0.34 0.40 0.50 0.53 0.55 0.62 0.68 0.73 0.65 0.67 0.71 0.73 0.74 0.79 0.81 0.76 0.72 0.69 0.62 0.61 0.68 0.71 0.74 0.71 0.73 0.79